Location: Unspecified
(0.0000°N, 0.0000°E)
Time: 13:31:51
(UTC+02:00)

Haruka - Visible Passes

Search period start: 26 April 2018 00:00
Search period end: 06 May 2018 00:00
Orbit: 541 x 21217 km, 31.3° (Epoch: 25 April)

Date Brightness Start Highest point End Pass type
(mag) Time Alt. Az. Time Alt. Az. Time Alt. Az.
27 Apr 7.5 02:49:03 22° SE 02:49:03 22° SE 03:04:30 10° SE visible
28 Apr 7.2 03:53:19 34° SSE 03:53:19 34° SSE 05:14:10 10° ESE visible
29 Apr 7.1 04:57:35 33° SSW 05:05:03 36° S 09:37:52 10° E visible
30 Apr 7.3 06:01:51 21° SW 06:41:11 41° SSE 11:04:46 10° ENE visible
01 May 7.6 07:07:35 10° SW 10:39:37 64° ESE 12:20:13 10° ENE visible
02 May 7.9 01:54:19 10° SE 01:54:19 10° SE 01:54:36 10° SE visible
03 May 7.6 02:58:34 24° SE 02:58:34 24° SE 03:21:56 10° SE visible
04 May 7.3 04:02:50 32° S 04:02:50 32° S 08:07:30 10° E visible
05 May 7.3 05:07:05 29° SSW 05:22:41 36° SSE 09:56:52 10° ENE visible
